User: anonymous   Login
Location: Unspecified
(0.0000°N, 0.0000°E)
Time: 12:51:03
(UTC+00:00)
Language:

MERIDIAN 6 - Orbit

View from above orbital plane
View from above orbital plane
View from above satellite
View from above satellite

Ground track
Ground track

The orbit data is extracted from the following two-line orbital elements,

1 38995U 12063A   17087.25601399 +.00000011 +00000-0 +10000-3 0  9990
2 38995 065.2529 344.0997 6944534 284.0011 013.0360 02.00601974031996
Epoch (UTC): 28 March 2017 06:08:39
Eccentricity: 0.6944534
inclination: 65.2529°
perigee height: 1736 km
apogee height: 38621 km
right ascension of ascending node: 344.0997°
argument of perigee: 284.0011°
revolutions per day: 2.00601974
mean anomaly at epoch: 13.0360°
orbit number at epoch: 3199

The dashed part of the orbit path shows where the satellite is in the earth's shadow,  

DLR